STARLINK-32396, 61633

Orbit data source: Space-Track

STARLINK-32396, 61633 is a payload satellite owned by SpaceX/Seattle (US) in LEO that was launched on Wed, 23 Oct 2024 UTC via an FALCON 9 launch vehicle from the Air Force Eastern Test Range (AFETR). Payload-class satellites include a variety of spacecraft equipped with specific instruments for various scientific and technological missions. These include communications satellites like Starlink; space stations such as the ISS; scientific satellites like the Hubble; Earth observation satellites from companies like Planet Labs, Umbra, and HawkEye 360; GPS; miniature CubeSats for education and research; and military/defense satellites.

Loading next visibility...
Identifier
61633, 2024-191N
Orbit
LEO
Country
Flag of USUS
Related business
Manufacturer
SpaceX/Seattle
Mission
Operational Commercial Communications
Bus & Motor
STARLINK V2M, Unknown motor
Mass
730 kg wet, ~700 kg dry
Launch date (UTC)
2024-10-23 (10 months ago)
Launch vehicle
FALCON 9
Launch site
Air Force Eastern Test Range (AFETR)
Object type
Payload
Rocket body
Debris
Shape & HBR
Box + 2 Pan, 14.5 m
Radar Cross Section
36.964 m², Large (>1 m²)

Expand to show TLE details & history
Last TLE update: 11 hours ago

TLE from 11 hours ago
0 STARLINK-32396
1 61633U 24191N   25243.14614322  .00000315  00000-0  20958-4 0  9992
2 61633  42.9991 154.1956 0001425 105.5069 254.5940 15.27578290 48359
Epoch: 2025-08-31T03:30Z
TLE epoch observation values (Epoch: 2025-08-31T03:30:26.774Z)
Latitude
-0.00001°
Longitude
122.01376°
Altitude
483.089 km
Speed
7.626 km/s
True Right ascension
10h 16m 46s
True Declination
0° 00' 00"
Sunlit
Object was in daylight at epoch
Visualization orbit readout
Latitude
Unknown
Longitude
Unknown
Altitude
Unknown
Speed
Unknown
Apparent Right ascension
Unknown
Apparent Declination
Unknown
Sunlit
N/A
Visualization observer readout
Local Sidereal Time
05:51:24
Azimuth
Unknown
Elevation
Unknown
Doppler factor
Unknown
Orbital elements
Apogee altitude
485.978 km
Perigee altitude
484.022 km
Semi-major axis
6,863.137 km
Eccentricity
0.00014
Inclination
42.9991°
RAAN
154.1956°
Arg. of periapsis
105.5069°
True anomaly
254.57826°
Mean anomaly
254.594°
Eccentric anomaly
254.58613°
Mean motion
3.81733 °/min
Orbital period
94.31 mins
BSTAR
0.000020958
Loading maneuver chart data...
Computing Atmospheric mass density...
Loading historical data...
Loading historical data...
Loading historical data...
Loading historical data...
Loading historical data...
Loading historical data...
Loading historical data...

Documentation

Showing up to 5 results
|